Miscellaneous Local Product
Issued by NWS North Platte, NE

Home | Current Version | Previous Version | Text Only | Print | Product List | Glossary On
Versions: 1 2 3 4 5 6 7 8 9 10 11 12 13 14 15 16 17 18 19 20 21 22 23 24 25 26 27 28 29 30 31 32 33 34 35 36 37 38 39 40 41 42 43 44 45 46 47 48 49 50
000
AXUS43 KLBF 270110
MISLBF


WESTERN AND NORTH CENTRAL NEBRASKA HOURLY WEATHER ROUNDUP
NATIONAL WEATHER SERVICE NORTH PLATTE NE
800 PM CDT THU MAY 26 2016

NOTE: "FAIR" INDICATES FEW OR NO CLOUDS BELOW 12,000 FEET WITH NO
SIGNIFICANT WEATHER AND/OR OBSTRUCTIONS TO VISIBILITY.

NOTE: STATIONS NOT REPORTING VARIABLES SUCH AS SKY/WEATHER OR
PRESSURE ARE PROVIDED BY RAWS AND APRS NETWORKS AND ARE NOT UNDER
NATIONAL WEATHER SERVICE QUALITY CONTROL.

...OBSERVATIONS IN AND NEAR THE EASTERN PANHANDLE OF NEBRASKA...

CITY           SKY/WX    TMP DP  RH WIND       PRES   REMARKS
PINE RIDGE     PTSUNNY   67  43  41 W9        29.82S
CHADRON        CLOUDY    64  49  57 SW9       29.82F
ALLIANCE       CLOUDY    61  42  49 N12       29.81F
SIDNEY         CLOUDY    60  43  53 N13       29.83F
CRESCENT LAKE    N/A     63  41  43 N13G26      N/A
$$

...OBSERVATIONS IN NORTHERN NEBRASKA AND FAR SOUTHERN SOUTH DAKOTA...

CITY           SKY/WX    TMP DP  RH WIND       PRES   REMARKS
WINNER         FAIR      71  56  58 SE13      29.76F
VALENTINE      CLOUDY    72  45  37 N7        29.76F
THEDFORD       CLOUDY    73  50  43 NE5       29.77S
AINSWORTH      CLOUDY    70  55  58 E9        29.76F
O`NEILL        CLOUDY    70  60  69 NE9       29.77F
ORD            CLOUDY    72  55  55 E14       29.73S
BROKEN BOW     CLOUDY    71  53  52 E15       29.74F
BUTTE            N/A     69  58  68 E8          N/A
CHAMBERS         N/A     71  53  53 E10         N/A
EWING            N/A     71  57  61 E9G17       N/A
$$

...OBSERVATIONS IN SOUTHWEST NEBRASKA AND FAR NORTHEAST COLORADO...

CITY           SKY/WX    TMP DP  RH WIND       PRES   REMARKS
HOLYOKE        MOCLDY    66  43  42 N21G31    29.74F
IMPERIAL       CLOUDY    65  47  52 NE17G23   29.71S
OGALLALA       CLOUDY    66  43  43 N24G30    29.73F THUNDER
NORTH PLATTE   CLOUDY    64  52  64 NE8       29.74S
MCCOOK         CLOUDY    65  59  81 NE13      29.69R THUNDER
LEXINGTON      PTCLDY    66  58  75 E7        29.73R
STAPLETON        N/A     70  49  46 MISG        N/A
GOTHENBURG       N/A     72  45  37 NE13        N/A
CALLAWAY         N/A     72  47  40 E7          N/A
$$

...OBSERVATIONS IN CENTRAL LINCOLN COUNTY AREA...

CITY           SKY/WX    TMP DP  RH WIND       PRES   REMARKS
N.P. AIRPORT   CLOUDY    64  52  64 NE8       29.74S
N.P. DOWNTOWN    N/A     71  43  37 E12G20      N/A
N.P. SOUTHEAST   N/A     69  46  43 NE5G16      N/A
N.P. HILLCREST   N/A     68  45  43 E20G26      N/A
$$

...SOME OBSERVATIONS FROM AROUND THE REGION...

CITY           SKY/WX    TMP DP  RH WIND       PRES   REMARKS
DENVER         LGT RAIN  46  42  86 NW6       29.93R
LARAMIE        CLOUDY    47  37  68 SE3       29.95S
CHEYENNE       CLOUDY    48  42  80 NW7       29.92R
SCOTTSBLUFF    CLOUDY    62  40  44 NW9       29.85F
RAPID CITY     MOSUNNY   66  45  46 N6        29.82S
BISMARCK       MOSUNNY   68  48  48 N12       29.75S
PIERRE         SUNNY     72  53  51 NW8       29.77R
SIOUX FALLS    CLOUDY    70  56  61 E7        29.82F
OMAHA          CLOUDY    65  58  78 E21       29.85R
GRAND ISLAND   CLOUDY    65  57  75 NW5       29.74R
KANSAS CITY    TSTM      63  58  83 NE20G25   29.83R
WICHITA        PTCLDY    81  65  58 S17       29.67R
OKLAHOMA CITY  PTCLDY    76  64  66 S18G26    29.73R
DALLAS         MOCLDY    76  66  71 SE16      29.75F
AMARILLO       CLEAR     82  21  10 SW21G32   29.70S
DODGE CITY     CLOUDY    74  45  35 SE20G31   29.56R
HAYS           CLOUDY    36 N/A N/A SE13      29.59F THUNDER WCI  27
$$




USA.gov is the U.S. government's official web portal to all federal, state and local government web resources and services.